STARLINK-1920 (46751 NORAD) Tracking and Keplerian Element Data

This shows tracking and keplerian element data for the satellite.

Feedback or suggestion? Click here.




ElementValue
Catalog46751
NameSTARLINK-1920
Epoch Orbit1430
Epoch Day21.16668981
Epoch Year2021
RAAN92.1778
Inclination53.0543
Eccentricity0.0001265
Argument of Perigee69.453
Mean Anonmoly201.9494
Mean Motion15.06386193
Decay Rate0.00023754
L11 46751U 20074N 21021.16668981 .00023754 00000-0 16088-2 0 9993
L22 46751 53.0543 92.1778 0001265 69.4530 201.9494 15.06386193 14309

Live tracking and technical data element details for STARLINK-1920 (NORAD 46751). STARLINK-1920 can be tracked NOW for your location showing map with azimuth and elevation plus other details from your city location.

Track the satellite on the map from your city or location and see movement details for azimuth, elevation, latitude, longitude, range, height, and movement on the map or in text.







IsCatalogInMostPopularTable: catalog: 46751, numindb: 29
Update: records affected: 1



GetName: 46751 STARLINK-1920

Hit Count: updated at: Fri, 22 Jan 2021 20:13:12 GMT